{"data":{"norad_id":58826,"intl_designator":"2024-017A","name":"STARLINK-31233","alt_names":[],"object_type":"PAYLOAD","status":"ACTIVE","operator":null,"country":"US","launch_date":"2024-01-24","launch_site_code":"AFWTR","launch_vehicle":null,"mission":null,"orbit_class":"UNKNOWN","rcs_meters":null,"size_class":null,"mass_kg":null,"dimensions":null,"purposes":["comms"],"wikipedia_slug":null,"has_3d_model":false,"image_url":null,"decayed_at":null,"tle_current":{"epoch":"2026-05-24T21:21:59.277024Z","epoch_age_seconds":74810,"freshness":"FRESH","line1":"1 58826U 24017A   26144.89026941  .00000398  00000+0  25562-4 0  9992","line2":"2 58826  53.1597 210.3256 0000965  97.8860 262.2250 15.30195183131840","mean_motion":15.30195183,"eccentricity":9.65e-5,"inclination_deg":53.1597,"raan_deg":210.3256,"arg_perigee_deg":97.886,"mean_anomaly_deg":262.225,"bstar":2.5562e-5,"rev_number":13184,"period_min":94.105641946724,"perigee_km":474.56810228815,"apogee_km":475.89080201342,"semimajor_km":6853.3664521508,"source":"CELESTRAK","updated_at":"2026-05-25T13:38:18.752659Z"}}}